{"data":{"norad_id":42984,"intl_designator":"2017-067A","name":"KOREASAT 5A","alt_names":[],"object_type":"PAYLOAD","status":"ACTIVE","operator":null,"country":"SKOR","launch_date":"2017-10-30","launch_site_code":"AFETR","launch_vehicle":null,"mission":null,"orbit_class":"UNKNOWN","rcs_meters":null,"size_class":null,"mass_kg":null,"dimensions":null,"purposes":["comms"],"wikipedia_slug":null,"has_3d_model":false,"image_url":null,"decayed_at":null,"tle_current":{"epoch":"2026-05-24T23:08:53.664000Z","epoch_age_seconds":74153,"freshness":"FRESH","line1":"1 42984U 17067A   26144.96451000 -.00000361  00000+0  00000+0 0  9999","line2":"2 42984   0.0097 309.5843 0000831 104.6512 288.7011  1.00272771 31297","mean_motion":1.00272771,"eccentricity":8.31e-5,"inclination_deg":0.0097,"raan_deg":309.5843,"arg_perigee_deg":104.6512,"mean_anomaly_deg":288.7011,"bstar":0,"rev_number":3129,"period_min":1436.082782633,"perigee_km":35782.814685606,"apogee_km":35789.822418119,"semimajor_km":42164.455551863,"source":"CELESTRAK","updated_at":"2026-05-25T13:38:14.049571Z"}}}